User: anonymous
Location: Unspecified
(0.0000°N, 0.0000°E)
Time: 08:24:12
(UTC+02:00)
Language:

H-2A R/B - Orbit

View from above orbital plane
View from above orbital plane
View from above satellite
View from above satellite

Ground track
Ground track

The orbit data is extracted from the following two-line orbital elements,

1 28932U 06002B   14273.73485789  .00001610  00000-0  16737-3 0  8208
2 28932 098.2875 138.9959 0094560 310.3333 088.8249 14.88267686470285
Epoch (UTC): 30 September 2014 17:38:11
Eccentricity: 0.0094560
inclination: 98.2875°
perigee height: 537 km
apogee height: 669 km
right ascension of ascending node: 138.9959°
argument of perigee: 310.3333°
revolutions per day: 14.88267686
mean anomaly at epoch: 88.8249°
orbit number at epoch: 47028

The dashed part of the orbit path shows where the satellite is in the earth's shadow,  

DLR